Total_Precipitation_Accumulation
1.27 1.31 1.30 1.12 1.15 1.30 1.59 1.87 2.32 1.97 1.27 0.83 0.78 0.68 0.67 0.63 0.64 0.71 0.63 0.57 0.53 0.50 0.54 0.52 0.62 0.84 1.20 1.58 1.90 2.09 2.47 2.91 2.93 3.00 2.82 2.70 2.61 2.49
1.14 1.24 1.23 1.14 1.18 1.32 1.48 1.57 1.94 2.23 1.78 0.86 0.85 0.92 0.94 0.85 0.69 0.55 0.41 0.55 0.54 0.48 0.43 0.41 0.42 0.50 0.55 0.68 0.86 1.09 1.40 1.70 2.23 2.68 2.77 2.64 2.52 2.71
0.90 1.07 1.05 1.03 1.24 1.26 1.37 1.61 1.72 1.85 1.75 0.90 0.72 0.66 0.56 0.47 0.39 0.45 0.45 0.37 0.28 0.35 0.42 0.46 0.51 0.54 0.53 0.55 0.62 0.71 0.87 1.11 1.29 1.69 2.33 2.74 2.93 2.65
0.50 0.76 0.81 1.02 1.19 1.22 1.38 1.38 1.35 1.21 1.36 0.87 0.51 0.59 0.59 0.51 0.46 0.49 0.47 0.52 0.52 0.52 0.56 0.49 0.53 0.62 0.66 0.68 0.69 0.72 0.72 0.78 0.92 1.11 1.41 1.95 2.28 2.57
0.65 0.63 0.58 0.79 0.95 0.90 0.92 0.97 1.04 1.16 1.32 1.34 0.83 0.70 0.60 0.55 0.67 0.73 0.64 0.64 0.60 0.68 0.73 0.73 0.72 0.75 0.77 0.70 0.70 0.81 0.94 0.99 1.02 1.08 1.32 1.56 1.79 2.04
0.96 0.83 0.78 0.77 0.71 0.77 0.95 0.97 1.04 1.33 1.41 1.37 1.21 0.93 0.81 0.68 0.83 0.83 0.75 0.69 0.75 0.74 0.87 0.82 0.86 0.79 0.76 0.76 0.75 0.74 0.81 0.92 1.00 1.10 1.27 1.41 1.55 1.67
1.30 1.28 1.14 1.06 0.97 0.94 1.03 1.04 1.35 1.46 1.70 1.94 1.76 1.55 1.28 1.03 1.09 1.09 1.09 0.84 0.68 0.63 0.69 0.80 0.94 0.95 0.92 1.00 0.95 0.94 1.07 1.28 1.34 1.38 1.45 1.66 1.91 1.84
1.68 1.36 1.32 1.46 1.29 1.28 1.15 1.09 1.29 1.77 2.00 1.98 1.86 1.64 1.08 0.90 0.84 1.02 1.38 1.58 1.34 0.61 0.71 0.85 1.23 1.39 1.26 1.25 1.40 1.27 1.32 1.36 1.56 1.74 1.79 1.80 1.78 2.06
2.11 1.99 1.80 1.45 1.62 1.54 1.85 1.80 1.73 1.85 1.79 1.76 1.70 1.34 1.19 1.09 1.46 1.67 1.66 1.83 1.56 0.95 1.09 1.13 1.13 1.32 1.26 1.25 1.50 1.38 1.33 1.20 1.15 1.13 1.30 1.56 1.85 2.05
1.75 1.65 1.71 1.78 1.73 1.66 1.78 2.33 2.09 1.68 1.57 1.50 1.53 1.44 1.49 1.59 1.98 2.36 2.35 2.34 1.99 1.52 1.31 1.63 0.92 0.95 0.87 0.92 1.30 1.17 1.11 1.12 1.08 1.05 1.05 1.12 1.35 1.61
1.58 1.49 1.65 1.55 1.74 1.86 1.94 2.23 2.14 1.96 2.01 2.17 2.13 2.15 2.12 2.07 2.08 2.58 3.24 3.33 2.88 1.71 1.34 1.54 0.98 0.87 0.82 0.79 0.87 1.06 0.88 0.94 1.09 1.15 1.20 1.25 1.26 1.37
1.79 1.42 1.75 1.28 1.69 1.86 1.58 1.53 1.68 1.31 1.44 1.58 1.66 1.63 1.50 1.45 1.88 1.85 2.31 3.21 2.46 2.03 1.10 1.73 1.25 1.22 1.67 0.71 0.63 0.92 0.93 0.96 0.91 0.88 0.95 1.03 1.10 1.13
1.43 1.18 1.03 1.36 1.30 1.26 1.37 1.38 1.62 1.48 1.71 1.66 1.60 1.67 1.65 1.49 1.40 1.53 1.89 2.96 3.29 2.63 1.43 2.62 2.34 1.54 2.09 1.26 0.78 0.84 0.79 0.95 1.04 0.94 0.87 0.92 0.97 1.05
1.56 1.34 1.35 1.71 1.03 0.97 1.11 1.42 1.76 1.77 1.48 1.68 1.88 1.82 1.70 1.59 1.52 1.54 1.64 1.86 2.13 2.45 1.73 2.40 3.43 2.12 2.53 2.01 1.26 0.98 1.02 1.01 1.16 1.22 1.10 1.28 1.55 1.61
0.88 1.33 1.59 1.16 0.97 1.08 1.33 1.39 1.31 1.21 1.65 2.14 2.11 1.93 1.79 1.83 1.86 1.88 1.87 1.82 1.84 1.78 1.87 1.80 2.31 2.21 2.65 2.65 1.83 1.20 1.45 1.46 1.48 1.57 1.44 1.37 1.31 1.28
0.91 1.05 1.16 1.40 1.34 1.07 1.02 0.83 0.53 0.73 1.23 1.60 1.74 1.61 1.74 1.86 1.84 1.88 2.24 2.09 2.26 1.92 1.61 1.54 1.67 1.96 2.25 1.82 2.00 1.71 1.38 1.89 1.81 1.94 1.95 1.60 1.56 1.49
1.44 1.10 1.09 1.10 1.42 1.31 1.01 0.69 0.67 0.91 1.20 0.99 1.21 1.36 1.51 1.74 1.91 2.03 2.42 2.52 2.55 1.96 1.64 1.52 1.56 1.58 1.64 1.74 2.06 1.78 1.84 1.76 1.75 2.21 2.28 2.09 2.00 1.93
2.61 1.99 1.38 1.13 1.33 1.76 1.72 1.67 1.47 1.46 1.14 1.27 1.34 1.40 1.66 1.77 1.94 2.12 2.29 2.30 2.14 1.67 1.52 1.39 1.48 1.77 2.00 1.77 1.87 1.89 1.81 2.01 2.31 2.50 2.67 2.34 2.19 2.18
3.37 3.21 2.63 1.96 1.65 1.61 1.76 1.91 2.06 1.92 2.06 2.21 2.13 1.89 1.84 2.05 2.38 2.28 2.04 1.88 1.73 1.48 1.25 1.18 1.56 2.16 2.61 1.66 1.17 1.54 1.98 1.85 1.81 2.32 2.51 2.36 2.29 1.88
2.71 2.83 2.90 2.95 2.56 2.19 2.30 2.43 2.44 2.39 2.46 2.49 2.55 2.42 2.41 2.58 2.45 2.13 1.72 1.62 1.56 1.43 1.32 1.20 1.32 1.67 2.58 2.12 1.90 1.63 1.79 2.00 1.89 1.98 1.88 1.91 2.16 2.13
2.39 2.56 2.62 2.76 3.08 2.92 2.73 2.95 2.99 3.17 3.21 3.27 3.11 3.18 3.06 3.02 2.67 2.04 1.85 1.73 1.84 1.88 1.76 1.20 1.08 1.44 1.83 2.19 2.59 1.79 1.87 2.01 1.96 2.38 2.15 2.28 2.14 1.84
2.34 2.53 2.59 2.66 2.85 3.19 3.19 3.40 3.61 3.43 3.33 3.17 3.17 3.21 3.10 3.07 2.87 2.42 2.11 2.23 1.95 1.77 1.71 1.46 1.57 1.85 2.03 2.39 1.96 1.42 1.44 1.54 1.73 1.86 2.13 2.63 2.92 3.01
2.42 2.60 2.69 2.68 2.59 2.81 3.08 3.10 3.56 3.44 3.12 3.15 3.11 2.87 2.70 2.69 2.19 2.27 2.35 2.19 2.15 2.20 1.87 1.82 1.70 1.77 1.93 2.05 1.98 1.72 1.42 1.49 1.45 1.50 1.99 1.94 1.82 1.84